Temp
-6 -7 -6 -6 -5 -5 -5 -5 -5 -5 -5 -4 -4 -5 -5 -5 -5 -5 -5 -5 -5 -6 -6 -6 -6 -6 -6 -6 -6 -6 -5 -5 -5 -5 -5 -5 -5 -5 -5 -4 -5 -5 -5
-6 -6 -6 -6 -6 -6 -5 -5 -5 -5 -5 -5 -4 -5 -5 -5 -5 -5 -5 -5 -5 -5 -6 -6 -6 -6 -6 -6 -6 -6 -5 -5 -5 -5 -5 -5 -5 -5 -5 -5 -5 -5 -5
-5 -6 -7 -7 -7 -7 -7 -7 -6 -5 -5 -5 -5 -4 -5 -5 -5 -4 -5 -5 -5 -5 -6 -6 -6 -6 -6 -6 -6 -6 -5 -5 -5 -5 -5 -5 -5 -5 -6 -6 -5 -5 -6
-6 -5 -6 -7 -7 -7 -7 -7 -6 -6 -6 -5 -5 -5 -5 -5 -5 -4 -4 -5 -5 -5 -6 -6 -6 -6 -6 -6 -6 -6 -6 -6 -5 -5 -5 -5 -5 -6 -5 -5 -6 -6 -6
-7 -6 -6 -6 -7 -7 -7 -7 -7 -6 -6 -6 -6 -5 -5 -5 -5 -5 -5 -5 -5 -5 -6 -6 -6 -6 -6 -6 -6 -6 -5 -5 -5 -5 -5 -5 -6 -5 -5 -6 -5 -5 -6
-8 -7 -6 -6 -6 -7 -7 -7 -7 -6 -6 -6 -6 -5 -5 -5 -5 -5 -5 -5 -5 -5 -6 -6 -6 -5 -6 -6 -6 -6 -6 -5 -5 -5 -5 -5 -6 -6 -6 -6 -5 -5 -6
-8 -8 -7 -6 -6 -6 -6 -6 -7 -7 -6 -6 -5 -5 -5 -5 -5 -6 -6 -5 -5 -5 -6 -6 -6 -6 -6 -5 -6 -6 -6 -5 -5 -6 -6 -6 -6 -6 -5 -6 -6 -5 -5
-9 -8 -8 -7 -6 -6 -5 -5 -6 -6 -4 -6 -6 -6 -5 -6 -6 -6 -6 -6 -6 -6 -6 -6 -6 -5 -5 -5 -5 -6 -6 -6 -5 -6 -5 -6 -7 -6 -6 -6 -6 -7 -6
-9 -9 -8 -8 -7 -6 -6 -5 -5 -7 -7 -7 -6 -4 -6 -6 -6 -7 -6 -6 -5 -5 -6 -6 -6 -6 -6 -6 -6 -6 -6 -6 -6 -6 -6 -6 -6 -6 -6 -7 -6 -7 -7
-9 -9 -8 -8 -8 -7 -6 -6 -6 -5 -5 -6 -5 -4 -5 -4 -6 -6 -6 -6 -6 -5 -6 -6 -6 -6 -6 -6 -6 -6 -6 -6 -6 -6 -6 -6 -6 -6 -6 -6 -6 -6 -7
-9 -9 -8 -8 -8 -8 -7 -6 -6 -6 -6 -7 -7 -6 -5 -7 -6 -5 -6 -6 -6 -6 -4 -6 -6 -6 -6 -5 -6 -5 -6 -6 -6 -6 -6 -6 -6 -6 -6 -6 -7 -7 -7
-9 -9 -9 -8 -8 -8 -7 -7 -7 -7 -7 -7 -7 -7 -7 -6 -6 -7 -7 -7 -7 -7 -6 -6 -7 -6 -6 -7 -6 -5 -5 -6 -5 -6 -6 -7 -7 -7 -7 -7 -7 -7 -7
-10 -9 -9 -9 -8 -8 -8 -7 -7 -8 -7 -7 -7 -7 -8 -7 -7 -8 -8 -8 -6 -7 -7 -8 -8 -6 -5 -6 -6 -4 -6 -6 -6 -6 -6 -6 -7 -7 -8 -7 -7 -7 -7
-11 -10 -9 -9 -9 -8 -8 -8 -8 -8 -8 -8 -8 -8 -8 -8 -8 -8 -8 -8 -7 -7 -8 -8 -7 -7 -6 -7 -7 -6 -7 -7 -6 -7 -7 -6 -7 -7 -7 -7 -8 -7 -8
-12 -11 -10 -9 -9 -8 -8 -8 -8 -8 -8 -9 -9 -9 -9 -9 -9 -9 -9 -8 -8 -7 -7 -7 -7 -6 -6 -6 -5 -6 -6 -5 -5 -6 -6 -6 -7 -7 -7 -7 -8 -8 -8
-14 -12 -10 -9 -9 -8 -8 -8 -8 -8 -8 -8 -8 -9 -8 -9 -9 -9 -9 -9 -9 -8 -8 -7 -7 -7 -7 -7 -6 -5 -5 -4 -4 -4 -4 -5 -7 -6 -7 -7 -8 -8 -7
-14 -13 -11 -10 -9 -9 -9 -9 -8 -8 -9 -9 -9 -9 -8 -9 -9 -10 -10 -9 -9 -9 -9 -8 -8 -8 -7 -7 -6 -6 -5 -5 -5 -5 -7 -7 -8 -7 -7 -7 -8 -8 -8
-13 -13 -12 -11 -10 -9 -9 -9 -9 -9 -9 -9 -9 -9 -9 -9 -9 -10 -10 -10 -9 -9 -9 -9 -9 -9 -8 -8 -8 -8 -8 -8 -9 -9 -8 -8 -8 -8 -8 -8 -8 -8 -9
-14 -13 -12 -11 -11 -9 -10 -10 -9 -9 -9 -9 -9 -9 -10 -9 -10 -10 -11 -11 -9 -9 -9 -10 -10 -10 -9 -9 -9 -9 -9 -9 -8 -8 -9 -9 -8 -9 -8 -9 -9 -9 -10
-14 -12 -13 -12 -12 -11 -10 -9 -11 -11 -10 -10 -10 -10 -11 -10 -10 -11 -11 -10 -10 -10 -10 -10 -11 -11 -11 -10 -9 -9 -9 -9 -9 -9 -9 -9 -9 -9 -9 -10 -10 -10 -10
-15 -14 -14 -14 -13 -12 -12 -11 -12 -11 -11 -10 -11 -10 -11 -11 -11 -11 -12 -11 -11 -11 -10 -10 -11 -11 -11 -11 -10 -10 -11 -10 -10 -10 -10 -10 -10 -10 -10 -11 -11 -10 -10
-14 -14 -14 -13 -13 -12 -12 -12 -11 -12 -13 -13 -11 -11 -11 -11 -11 -11 -11 -11 -11 -11 -11 -11 -12 -12 -12 -11 -11 -11 -11 -11 -11 -11 -11 -11 -11 -11 -11 -11 -11 -12 -12
-15 -14 -14 -14 -14 -13 -14 -14 -14 -14 -14 -13 -13 -14 -13 -14 -14 -14 -13 -13 -13 -12 -12 -12 -11 -11 -11 -11 -11 -11 -11 -11 -11 -11 -12 -12 -13 -14 -14 -13 -13 -13 -13
-14 -14 -15 -15 -14 -14 -14 -14 -14 -13 -13 -14 -14 -14 -14 -14 -13 -12 -13 -12 -12 -13 -12 -12 -13 -12 -12 -11 -11 -10 -11 -11 -11 -11 -11 -11 -10 -10 -11 -13 -14 -14 -14
-15 -15 -15 -15 -15 -15 -15 -14 -15 -15 -15 -14 -14 -14 -14 -13 -14 -13 -13 -13 -13 -13 -13 -13 -13 -13 -13 -13 -12 -12 -12 -12 -13 -13 -13 -13 -13 -12 -11 -11 -12 -12 -13
-16 -16 -15 -16 -16 -16 -15 -15 -15 -15 -15 -15 -14 -14 -14 -14 -14 -14 -14 -14 -14 -14 -14 -14 -14 -14 -14 -15 -15 -15 -14 -14 -14 -14 -14 -14 -14 -14 -15 -14 -14 -14 -15
Height
5915 5915 5917 5917 5916 5918 5922 5925 5928 5930 5932 5935 5937 5937 5939 5942 5942 5944 5944 5945 5945 5945 5945 5945 5944 5942 5941 5939 5937 5936 5934 5934 5935 5933 5932 5930 5927 5926 5923 5921 5918 5916 5913
5908 5908 5909 5910 5911 5911 5914 5914 5918 5921 5923 5925 5929 5931 5931 5933 5935 5937 5937 5937 5938 5938 5938 5937 5937 5937 5937 5935 5932 5930 5928 5926 5928 5927 5924 5923 5921 5919 5917 5914 5911 5910 5908
5894 5900 5902 5902 5902 5905 5905 5905 5909 5912 5914 5917 5919 5924 5924 5924 5926 5929 5930 5930 5931 5931 5931 5931 5931 5929 5928 5928 5926 5925 5923 5922 5921 5920 5919 5917 5915 5913 5912 5909 5905 5902 5898
5877 5887 5889 5893 5895 5895 5897 5897 5899 5903 5905 5907 5909 5912 5917 5917 5917 5919 5921 5922 5922 5922 5922 5923 5923 5922 5922 5920 5919 5919 5918 5917 5915 5914 5912 5909 5909 5906 5905 5905 5901 5896 5892
5867 5870 5875 5879 5883 5885 5887 5891 5890 5892 5895 5898 5898 5901 5905 5908 5911 5912 5912 5912 5913 5913 5912 5913 5913 5914 5913 5912 5910 5910 5908 5910 5908 5907 5906 5904 5903 5902 5898 5896 5896 5892 5884
5853 5855 5859 5865 5868 5873 5876 5878 5880 5882 5884 5885 5888 5890 5893 5896 5900 5900 5901 5901 5902 5903 5903 5903 5903 5904 5905 5903 5901 5899 5900 5900 5900 5899 5898 5896 5894 5896 5893 5889 5887 5886 5881
5842 5842 5843 5848 5853 5857 5861 5865 5869 5867 5868 5873 5875 5877 5881 5884 5887 5888 5887 5887 5889 5891 5892 5892 5893 5893 5892 5893 5893 5892 5892 5891 5889 5890 5890 5888 5889 5886 5885 5882 5878 5877 5872
5827 5829 5829 5832 5838 5842 5846 5850 5852 5849 5824 5857 5857 5857 5863 5868 5871 5873 5874 5874 5876 5879 5879 5880 5880 5881 5881 5879 5879 5882 5883 5881 5881 5881 5881 5880 5876 5874 5875 5874 5870 5868 5864
5810 5812 5815 5818 5823 5827 5831 5834 5838 5837 5842 5840 5842 5816 5842 5853 5856 5856 5859 5862 5863 5864 5865 5866 5868 5869 5871 5867 5866 5869 5872 5872 5870 5870 5870 5869 5867 5868 5867 5865 5862 5859 5857
5790 5796 5799 5803 5808 5813 5817 5821 5822 5823 5826 5824 5831 5818 5814 5825 5835 5845 5847 5848 5850 5851 5851 5851 5853 5856 5857 5851 5853 5855 5855 5860 5858 5859 5858 5859 5859 5858 5857 5853 5853 5848 5847
5772 5778 5783 5787 5792 5798 5803 5807 5810 5811 5813 5813 5818 5812 5813 5817 5823 5823 5832 5831 5833 5838 5813 5832 5837 5841 5842 5839 5840 5842 5844 5845 5845 5846 5847 5847 5848 5846 5843 5841 5840 5838 5838
5752 5759 5766 5770 5776 5783 5787 5793 5797 5800 5802 5804 5805 5804 5808 5809 5813 5814 5809 5817 5807 5802 5804 5818 5823 5825 5829 5826 5826 5825 5827 5830 5832 5833 5833 5832 5832 5832 5831 5830 5832 5829 5829
5732 5741 5749 5753 5760 5767 5773 5778 5783 5786 5789 5793 5795 5796 5797 5798 5801 5802 5804 5802 5803 5803 5803 5807 5814 5814 5813 5812 5813 5807 5807 5814 5817 5820 5821 5822 5821 5821 5822 5821 5821 5822 5820
5711 5722 5730 5738 5745 5752 5758 5765 5769 5772 5778 5782 5783 5787 5789 5790 5791 5792 5792 5793 5791 5790 5793 5796 5801 5803 5802 5804 5804 5802 5803 5802 5802 5807 5809 5811 5810 5812 5811 5810 5809 5812 5811
5692 5704 5714 5723 5732 5738 5745 5751 5756 5759 5765 5768 5772 5775 5777 5777 5778 5779 5779 5780 5780 5782 5780 5783 5785 5788 5790 5791 5790 5789 5790 5791 5792 5796 5796 5796 5797 5797 5798 5798 5798 5798 5800
5677 5687 5699 5709 5719 5726 5732 5738 5743 5746 5751 5755 5760 5762 5763 5765 5767 5768 5768 5768 5767 5767 5768 5772 5774 5775 5775 5776 5776 5776 5777 5778 5776 5779 5780 5779 5782 5783 5784 5785 5785 5787 5788
5663 5674 5686 5697 5704 5711 5719 5724 5729 5733 5737 5741 5744 5747 5748 5749 5750 5751 5753 5754 5756 5757 5758 5757 5758 5760 5762 5763 5762 5762 5763 5761 5760 5762 5762 5763 5767 5768 5769 5770 5773 5773 5775
5655 5665 5676 5686 5694 5703 5708 5711 5716 5719 5723 5726 5730 5733 5736 5738 5739 5741 5742 5743 5744 5744 5745 5746 5745 5746 5747 5748 5749 5749 5751 5752 5752 5752 5754 5755 5756 5756 5757 5759 5760 5761 5761
5651 5659 5669 5679 5691 5692 5690 5695 5701 5705 5709 5710 5712 5716 5720 5724 5726 5729 5729 5730 5731 5730 5730 5732 5734 5736 5735 5736 5737 5740 5741 5743 5743 5744 5745 5744 5745 5745 5745 5744 5745 5747 5748
5650 5651 5662 5672 5680 5687 5680 5684 5691 5698 5699 5700 5698 5704 5706 5711 5713 5715 5718 5719 5719 5719 5720 5722 5723 5725 5727 5728 5727 5729 5731 5732 5733 5733 5733 5734 5735 5735 5734 5734 5734 5734 5734
5650 5651 5654 5666 5672 5676 5680 5684 5687 5688 5690 5687 5688 5690 5696 5699 5703 5704 5704 5706 5708 5710 5712 5714 5715 5716 5716 5716 5717 5718 5719 5719 5720 5721 5721 5721 5721 5722 5723 5722 5721 5722 5722
5655 5657 5660 5664 5669 5674 5676 5676 5680 5675 5679 5679 5680 5682 5684 5687 5691 5692 5693 5695 5698 5700 5702 5702 5703 5705 5704 5703 5705 5705 5705 5705 5707 5708 5707 5708 5707 5706 5706 5706 5706 5706 5706
5655 5655 5661 5666 5665 5669 5669 5669 5672 5673 5676 5676 5675 5675 5676 5678 5682 5682 5683 5686 5688 5690 5692 5693 5693 5692 5693 5693 5692 5693 5693 5694 5695 5696 5698 5698 5696 5693 5691 5691 5691 5692 5692
5659 5662 5665 5667 5668 5669 5672 5671 5671 5670 5673 5674 5675 5675 5672 5671 5673 5676 5676 5677 5678 5679 5681 5683 5682 5679 5678 5678 5678 5677 5677 5677 5678 5678 5678 5678 5676 5675 5678 5679 5678 5675 5672
5661 5661 5662 5662 5662 5660 5660 5664 5665 5664 5665 5666 5665 5666 5666 5666 5664 5665 5666 5666 5666 5665 5665 5666 5666 5665 5664 5664 5663 5662 5662 5661 5660 5659 5658 5656 5656 5656 5654 5654 5653 5653 5652
5663 5661 5660 5659 5660 5659 5658 5659 5658 5658 5659 5660 5660 5659 5659 5658 5656 5655 5654 5654 5653 5652 5651 5651 5651 5650 5648 5646 5646 5645 5643 5642 5641 5640 5638 5637 5636 5635 5634 5635 5635 5634 5632
Wind_Speed
22 30 30 30 30 30 29 27 28 31 33 32 31 32 31 30 29 27 27 26 24 23 22 21 21 21 21 23 22 20 20 20 19 24 24 24 26 26 28 30 29 29 28
31 30 32 30 34 33 33 31 33 31 31 34 33 34 35 35 33 30 28 28 27 26 24 24 24 25 24 23 24 23 24 25 22 25 28 28 30 31 30 28 30 30 29
34 33 35 35 33 34 34 34 35 36 36 35 35 32 35 36 36 33 31 31 30 30 30 28 27 27 27 28 27 27 29 28 29 30 30 32 34 35 34 33 31 30 33
47 39 38 38 39 36 35 37 36 36 38 39 38 38 36 36 36 35 33 33 33 33 34 33 31 29 28 31 31 31 32 32 33 35 33 33 35 35 34 32 32 31 32
44 43 43 42 39 39 38 37 37 39 36 38 42 40 39 38 37 36 36 36 35 35 36 35 34 33 32 31 33 34 36 34 34 33 33 33 34 33 31 36 34 30 32
49 48 43 43 46 45 44 42 41 41 41 42 38 39 39 38 37 37 36 37 36 37 37 37 36 35 34 34 34 36 36 38 32 35 32 30 31 36 34 34 34 32 28
51 51 51 46 44 47 47 48 44 46 43 39 41 39 38 40 39 39 39 40 39 37 39 40 39 39 39 37 37 35 35 31 30 31 30 28 31 38 36 36 34 31 31
53 54 53 51 46 45 46 49 51 54 40 43 46 44 43 42 42 43 42 44 44 42 41 42 41 39 38 40 42 39 36 38 38 37 33 31 34 37 39 38 38 34 34
57 57 55 53 49 46 44 46 51 53 51 52 52 49 43 45 45 44 45 46 45 45 45 45 42 41 41 44 45 43 39 39 41 38 35 35 36 40 39 37 37 36 32
60 59 58 56 52 49 46 44 46 56 56 60 57 50 48 45 42 43 46 45 45 42 47 48 43 41 42 45 45 48 48 44 44 41 39 39 39 40 39 42 42 41 40
63 58 59 58 55 52 49 47 45 48 54 60 56 61 58 44 44 44 55 52 45 49 49 53 45 43 41 41 46 45 52 55 47 46 43 43 44 42 42 44 42 44 40
66 61 58 58 57 53 51 49 47 47 46 51 58 57 59 53 50 57 53 59 63 58 46 47 45 40 50 42 47 37 49 55 52 49 48 46 43 42 40 43 43 38 35
66 64 60 57 55 54 52 50 49 49 47 46 44 45 43 44 46 46 44 45 50 55 33 24 34 38 43 42 42 56 46 46 51 52 47 45 45 46 44 42 41 38 39
65 62 61 58 54 51 49 49 48 47 46 44 42 43 42 42 43 43 44 40 50 55 59 48 50 47 47 44 46 55 39 45 50 46 43 45 45 43 44 46 47 42 35
57 59 58 57 54 52 48 47 47 46 44 43 41 40 40 43 46 42 39 42 35 36 30 29 34 37 33 35 35 35 35 35 36 38 47 55 53 35 34 43 50 41 38
48 53 54 54 53 51 49 48 48 47 45 45 46 48 50 51 49 48 49 42 40 39 38 37 37 39 40 42 39 40 41 39 33 33 42 37 42 49 49 44 47 45 44
41 44 45 47 50 50 48 48 47 47 47 46 46 47 49 49 48 47 47 45 40 41 40 42 45 43 41 38 41 42 39 34 32 34 31 28 35 49 42 39 43 39 37
30 31 32 38 41 44 45 46 43 46 47 49 48 49 49 49 49 48 47 43 43 45 48 47 47 42 36 34 31 30 27 27 26 26 22 30 30 36 34 38 40 38 34
27 29 29 26 28 25 35 44 42 38 42 48 50 52 47 49 49 46 41 45 45 45 41 34 39 34 30 31 28 25 27 27 26 30 33 39 33 32 39 42 36 30 32
19 22 34 36 38 38 40 33 30 33 36 32 32 49 50 44 44 38 38 31 39 33 33 32 30 34 33 35 39 37 40 39 34 33 36 41 41 42 43 40 41 39 42
24 23 18 31 34 36 39 38 37 43 41 41 42 41 42 35 31 36 42 41 40 32 32 37 35 34 34 39 43 37 47 43 46 46 48 45 44 45 45 47 45 47 47
19 16 10 10 20 22 30 31 41 32 26 17 36 36 35 36 35 36 37 35 30 29 26 29 32 35 35 35 33 40 45 50 53 55 55 50 56 61 62 61 58 57 54
26 23 21 16 17 11 10 3 3 4 8 10 9 3 7 8 12 16 18 24 27 28 31 33 35 35 34 35 37 39 41 45 49 50 49 46 43 47 51 50 51 52 52
9 8 7 9 10 10 11 8 7 6 9 9 11 12 13 16 18 19 22 25 26 28 31 32 34 36 37 37 40 42 46 48 50 52 54 57 61 59 56 52 50 53 52
7 8 12 11 12 12 13 15 17 17 19 18 20 24 25 27 30 31 33 33 34 37 40 42 43 45 48 50 51 53 54 56 57 58 60 61 64 66 70 69 71 69 68
11 12 13 13 14 15 17 17 18 18 21 24 29 32 35 38 39 42 44 44 46 46 47 49 51 51 49 47 49 51 54 58 60 62 63 64 62 63 64 65 66 69 67
Wind_Direction
260 264 256 254 251 247 248 249 252 253 253 251 249 251 253 253 258 262 265 266 267 275 283 283 283 283 286 292 295 292 289 285 287 287 286 289 291 295 299 306 313 318 315
256 264 262 255 256 256 254 247 249 252 254 256 251 250 253 258 260 260 260 261 262 266 274 280 281 282 282 282 284 286 283 281 282 284 287 291 294 298 301 305 308 306 306
253 253 260 258 259 255 256 258 253 252 252 255 258 252 252 257 261 261 259 260 261 263 267 270 274 279 280 280 279 279 280 284 287 286 292 298 299 302 304 301 302 307 307
264 248 249 256 255 257 257 255 260 257 256 256 255 259 258 256 260 264 264 264 264 265 267 270 272 271 272 275 277 281 285 287 288 291 292 289 292 293 297 301 301 302 300
262 258 248 246 249 251 250 255 257 259 259 258 259 259 259 262 262 264 266 267 268 267 268 270 271 273 272 272 275 278 278 284 284 288 288 289 293 293 300 300 299 300 301
264 263 258 249 244 245 247 252 252 255 257 260 260 260 256 258 260 261 262 263 264 266 268 269 270 272 272 273 275 274 280 282 279 282 285 289 289 287 294 299 301 306 300
260 261 262 257 251 247 241 241 247 250 248 256 262 258 252 253 256 257 259 260 260 261 265 268 270 272 272 272 271 268 276 279 271 278 284 287 284 285 291 297 297 295 296
258 258 259 260 257 252 247 240 239 248 250 248 249 248 244 244 249 251 252 258 262 262 263 265 268 270 272 273 271 268 267 267 273 274 279 283 286 287 292 295 295 292 301
254 255 256 257 257 255 252 248 244 249 249 254 243 253 239 245 247 251 254 258 261 262 260 262 261 263 264 266 269 270 265 265 271 276 278 282 282 282 286 287 288 295 296
252 252 253 255 256 255 252 252 251 247 245 254 254 262 253 236 248 252 255 254 257 260 259 259 257 262 269 269 265 267 267 264 265 271 272 277 278 282 283 287 290 294 293
253 251 251 251 253 254 253 252 252 252 250 252 253 257 266 265 245 252 253 249 246 252 257 255 256 255 260 271 279 266 263 268 268 271 272 273 275 280 286 291 295 297 293
247 248 249 250 250 250 252 252 254 254 254 252 255 263 266 272 266 272 286 262 269 278 268 270 265 266 271 286 287 278 270 266 266 270 271 274 272 278 281 287 294 294 288
244 243 244 246 247 247 248 251 251 254 254 255 257 260 269 271 269 274 276 283 274 277 278 278 281 279 283 288 300 271 261 269 262 263 262 267 271 273 278 283 281 281 282
245 240 240 241 245 246 246 247 250 253 256 258 259 260 264 267 268 274 277 283 279 276 286 292 280 285 275 276 269 265 280 301 261 254 267 274 270 274 274 271 276 281 277
244 240 237 238 240 244 246 246 249 252 253 257 257 258 258 264 268 274 269 286 276 276 275 271 270 271 278 282 284 271 273 284 295 282 278 271 276 259 260 265 268 273 271
241 240 237 235 236 240 245 246 249 253 255 255 255 256 258 260 264 266 270 272 277 276 275 274 272 275 281 285 276 274 269 263 261 271 277 264 267 266 267 263 263 264 261
237 236 235 233 234 237 241 244 248 252 255 257 259 259 261 263 264 265 268 272 272 271 271 277 278 276 278 277 272 268 262 257 259 266 265 268 268 263 264 255 249 251 256
229 230 227 227 232 236 241 244 246 251 255 259 259 259 258 258 259 263 268 269 270 274 276 277 279 281 272 271 258 252 249 242 241 246 226 254 252 248 263 255 250 248 254
211 204 192 211 201 213 236 229 247 250 259 258 255 256 253 258 257 263 263 264 274 274 274 272 267 256 250 237 238 246 248 255 265 249 244 235 236 245 241 241 243 244 255
180 178 195 196 206 221 241 235 248 249 220 213 226 254 254 256 252 253 261 264 266 255 253 254 256 249 252 248 239 252 245 244 235 234 244 249 250 245 247 255 261 262 261
236 238 248 184 208 224 232 233 235 219 230 227 235 221 235 239 239 253 264 262 254 257 253 251 260 260 256 253 246 260 251 255 248 251 258 254 257 256 264 265 272 273 271
200 202 218 238 226 215 211 210 212 192 195 208 211 217 221 232 245 240 239 242 247 248 255 259 254 259 264 255 261 262 265 270 271 269 277 272 270 271 272 272 275 281 283
70 140 133 122 99 115 86 135 100 60 17 285 257 254 223 206 236 237 245 249 252 257 257 259 260 260 258 258 259 261 263 265 266 267 266 269 275 278 281 283 282 281 280
58 68 122 145 176 187 196 207 204 216 238 237 248 259 265 268 265 258 254 249 249 253 255 262 273 277 272 268 264 264 266 269 269 269 267 266 266 265 264 271 276 280 282
350 337 332 321 313 322 312 286 293 304 302 288 271 275 274 269 273 271 277 277 277 276 277 275 277 279 281 280 278 276 277 276 277 278 279 280 280 275 270 269 276 277 284
343 332 322 323 329 320 312 310 310 305 296 292 292 289 285 286 284 284 285 286 286 285 285 285 283 283 284 283 283 283 281 281 281 279 278 277 277 277 277 277 278 280 281